Regional Weather Roundup
Issued by NWS

Home | Current Version | Previous Version | Graphics & Text | Print | Product List | Glossary On
Versions: 1 2 3 4 5 6 7 8 9 10 11 12 13 14 15 16 17 18 19 20 21 22 23 24 25 26 27 28 29 30 31 32 33 34 35 36 37 38 39 40 41 42 43 44 45 46 47 48 49 50
000
ASUS43 KBIS 310302
RWRND

NORTH DAKOTA REGIONAL WEATHER ROUNDUP
NATIONAL WEATHER SERVICE BISMARCK ND
1000 PM CDT THU JUL 30 2015

NOTE: "FAIR" INDICATES FEW OR NO CLOUDS BELOW 12,000 FEET WITH NO
SIGNIFICANT WEATHER AND/OR OBSTRUCTIONS TO VISIBILITY.


NDZ001>003-009>011-017-310400-
NORTHWEST NORTH DAKOTA

CITY           SKY/WX    TMP DP  RH WIND       PRES   REMARKS
WILLISTON      CLEAR     71  47  42 N7        30.14R
MINOT          CLEAR     63  47  55 NW9       30.11S
MINOT AFB      CLEAR     59  53  80 W8        30.11R
$$

NDZ018>021-031>035-040>046-310400-
SOUTHWEST NORTH DAKOTA

CITY           SKY/WX    TMP DP  RH WIND       PRES   REMARKS
BISMARCK       CLEAR     71  52  50 NE3       30.13R
DICKINSON      CLEAR     68  47  46 NE5       30.16R
GARRISON         N/A     64  55  72 N5        30.13R
HETTINGER ARPT CLEAR     63  49  60 NE7       30.18R
$$

NDZ004>008-012>016-024-026-027-054-310400-
NORTHEAST NORTH DAKOTA

CITY           SKY/WX    TMP DP  RH WIND       PRES   REMARKS
GRAND FORKS    CLEAR     66  51  58 W8        30.01R
GRND FRKS AFB  CLEAR     67  51  55 NW8       30.03R
DEVILS LAKE    CLEAR     64  50  59 W7        30.06R
$$

NDZ022-023-025-028>030-036>039-047>053-310400-
SOUTHEAST NORTH DAKOTA

CITY           SKY/WX    TMP DP  RH WIND       PRES   REMARKS
FARGO          CLEAR     68  57  68 W10       30.03R
JAMESTOWN      CLEAR     67  54  63 NW10      30.09R
$$



USA.gov is the U.S. government's official web portal to all federal, state and local government web resources and services.